When you browse on this site, cookies collect data to enhance your experience and personalize the content and advertising you see.
Visit our Privacy Policy to learn more. By continuing to use the site, you agree to this use of cookies and data.
  • In Czech Republic
  • List of Countries
  • For 7 days
  • Water Temperature
  • Satellite Maps
  • Weather Map
  • Weather Widgets
  • user-avatar
    Login

    Hourly Weather Dziadowek

    Today, 19 February, Tuesday

    Time Temperature Precipitation Wind Pressure Humidity
    00:00 0°C° 0 mm 4 mps 742 mmHg 92%
    01:00 0°C° 0 mm 4 mps 742 mmHg 92%
    02:00 0°C° 0 mm 5 mps 741 mmHg 93%
    03:00 0°C° 0 mm 5 mps 740 mmHg 93%
    04:00 -1°C° 0 mm 5 mps 740 mmHg 94%
    05:00 -1°C° 0 mm 5 mps 739 mmHg 94%
    06:00 -1°C° 0 mm 5 mps 739 mmHg 94%
    07:00 -1°C° 0 mm 5 mps 738 mmHg 93%
    08:00 -1°C° 0 mm 4 mps 737 mmHg 93%
    09:00 0°C° 0 mm 5 mps 737 mmHg 87%
    10:00 +1°C° 0 mm 5 mps 737 mmHg 81%
    11:00 +2°C° 0 mm 6 mps 736 mmHg 75%
    12:00 +3°C° 0 mm 6 mps 736 mmHg 70%
    13:00 +4°C° 0 mm 6 mps 735 mmHg 65%
    14:00 +7°C° 0 mm 5 mps 735 mmHg 59%
    15:00 +7°C° 0 mm 5 mps 734 mmHg 61%
    16:00 +7°C° 0 mm 5 mps 734 mmHg 63%
    17:00 +6°C° 0 mm 5 mps 734 mmHg 65%
    18:00 +5°C° 0 mm 5 mps 734 mmHg 72%
    19:00 +3°C° 0 mm 5 mps 734 mmHg 78%
    20:00 +4°C° 0 mm 4 mps 734 mmHg 84%
    21:00 +3°C° 0 mm 4 mps 734 mmHg 85%
    22:00 +2°C° 0 mm 5 mps 734 mmHg 85%
    23:00 +2°C° 0 mm 5 mps 734 mmHg 86%

    Tomorrow, 20 February, Wednesday

    Time Temperature Precipitation Wind Pressure Humidity
    00:00 +1°C° 0 mm 5 mps 734 mmHg 86%
    01:00 +1°C° 0 mm 6 mps 733 mmHg 87%
    02:00 +1°C° 0 mm 6 mps 733 mmHg 87%
    03:00 0°C° 0.1 mm 7 mps 733 mmHg 86%
    04:00 0°C° 0.1 mm 7 mps 733 mmHg 85%
    05:00 +2°C° 0.1 mm 7 mps 733 mmHg 83%
    06:00 0°C° 0.1 mm 7 mps 733 mmHg 83%
    07:00 0°C° 0.1 mm 7 mps 733 mmHg 83%
    08:00 0°C° 0.1 mm 7 mps 733 mmHg 83%
    09:00 0°C° 0.1 mm 7 mps 733 mmHg 81%
    10:00 0°C° 0.1 mm 8 mps 734 mmHg 79%
    11:00 +1°C° 0.1 mm 8 mps 734 mmHg 77%
    12:00 +1°C° 0 mm 8 mps 734 mmHg 77%
    13:00 +1°C° 0 mm 8 mps 734 mmHg 77%
    14:00 +1°C° 0 mm 8 mps 735 mmHg 77%
    15:00 +1°C° 0 mm 8 mps 735 mmHg 76%
    16:00 0°C° 0 mm 9 mps 736 mmHg 76%
    17:00 0°C° 0 mm 9 mps 736 mmHg 76%
    18:00 -1°C° 0 mm 8 mps 737 mmHg 74%
    19:00 -2°C° 0 mm 7 mps 737 mmHg 72%
    20:00 -4°C° 0 mm 6 mps 738 mmHg 69%
    21:00 -4°C° 0 mm 6 mps 738 mmHg 69%
    22:00 -4°C° 0 mm 5 mps 739 mmHg 68%
    23:00 -5°C° 0 mm 5 mps 739 mmHg 68%

    Day after tomorrow, 21 February, Thursday

    Time Temperature Precipitation Wind Pressure Humidity
    00:00 -5°C° 0 mm 5 mps 740 mmHg 68%
    01:00 -5°C° 0 mm 5 mps 740 mmHg 67%
    02:00 -5°C° 0 mm 5 mps 741 mmHg 67%
    03:00 -5°C° 0 mm 5 mps 741 mmHg 67%
    04:00 -4°C° 0 mm 4 mps 741 mmHg 66%
    05:00 -4°C° 0 mm 4 mps 741 mmHg 65%
    06:00 -4°C° 0 mm 4 mps 741 mmHg 65%
    07:00 -4°C° 0 mm 3 mps 741 mmHg 65%
    08:00 -4°C° 0 mm 3 mps 741 mmHg 65%
    09:00 -3°C° 0 mm 2 mps 741 mmHg 61%
    10:00 -2°C° 0 mm 2 mps 741 mmHg 58%
    11:00 0°C° 0 mm 1 mps 741 mmHg 55%
    12:00 0°C° 0.1 mm 1 mps 741 mmHg 58%
    13:00 0°C° 0.1 mm 1 mps 741 mmHg 60%
    14:00 -1°C° 0.1 mm 0 mps 740 mmHg 63%
    15:00 0°C° 0.2 mm 1 mps 740 mmHg 67%
    16:00 -1°C° 0.2 mm 1 mps 740 mmHg 70%
    17:00 -3°C° 0.2 mm 2 mps 740 mmHg 74%
    18:00 -3°C° 0.1 mm 2 mps 740 mmHg 71%
    19:00 -4°C° 0.1 mm 3 mps 740 mmHg 68%
    20:00 -4°C° 0.1 mm 3 mps 741 mmHg 65%
    21:00 -5°C° 0.1 mm 4 mps 741 mmHg 64%
    22:00 -5°C° 0.1 mm 4 mps 742 mmHg 62%
    23:00 -5°C° 0.1 mm 4 mps 743 mmHg 61%

    22 February, Friday

    Time Temperature Precipitation Wind Pressure Humidity
    00:00 -5°C° 0 mm 4 mps 743 mmHg 61%
    01:00 -7°C° 0 mm 4 mps 744 mmHg 62%
    02:00 -7°C° 0 mm 5 mps 745 mmHg 63%
    03:00 -8°C° 0 mm 5 mps 746 mmHg 62%
    04:00 -8°C° 0 mm 5 mps 747 mmHg 61%
    05:00 -10°C° 0 mm 6 mps 747 mmHg 61%
    06:00 -10°C° 0 mm 6 mps 748 mmHg 61%
    07:00 -11°C° 0 mm 6 mps 749 mmHg 61%
    08:00 -11°C° 0 mm 5 mps 750 mmHg 61%
    09:00 -11°C° 0 mm 5 mps 751 mmHg 56%
    10:00 -10°C° 0 mm 5 mps 752 mmHg 51%
    11:00 -10°C° 0 mm 5 mps 753 mmHg 46%
    12:00 -8°C° 0 mm 5 mps 753 mmHg 42%
    13:00 -7°C° 0 mm 4 mps 754 mmHg 38%
    14:00 -7°C° 0 mm 4 mps 754 mmHg 34%
    15:00 -7°C° 0 mm 4 mps 754 mmHg 35%
    16:00 -6°C° 0 mm 3 mps 755 mmHg 36%
    17:00 -6°C° 0 mm 3 mps 755 mmHg 36%
    18:00 -6°C° 0 mm 3 mps 755 mmHg 39%
    19:00 -7°C° 0 mm 3 mps 755 mmHg 41%
    20:00 -7°C° 0 mm 3 mps 756 mmHg 44%
    21:00 -7°C° 0 mm 3 mps 756 mmHg 46%
    22:00 -8°C° 0 mm 3 mps 756 mmHg 48%
    23:00 -8°C° 0 mm 3 mps 756 mmHg 50%

    23 February, Saturday

    Time Temperature Precipitation Wind Pressure Humidity
    00:00 -8°C° 0 mm 3 mps 756 mmHg 52%
    01:00 -8°C° 0 mm 3 mps 756 mmHg 55%
    02:00 -8°C° 0 mm 2 mps 756 mmHg 58%
    03:00 -8°C° 0 mm 2 mps 756 mmHg 59%
    04:00 -8°C° 0 mm 2 mps 756 mmHg 60%
    05:00 -8°C° 0 mm 2 mps 755 mmHg 61%
    06:00 -8°C° 0 mm 2 mps 755 mmHg 62%
    07:00 -7°C° 0 mm 1 mps 755 mmHg 62%
    08:00 -7°C° 0 mm 1 mps 755 mmHg 63%
    09:00 -6°C° 0 mm 1 mps 755 mmHg 60%
    10:00 -4°C° 0 mm 1 mps 755 mmHg 57%
    11:00 -3°C° 0 mm 1 mps 755 mmHg 54%
    12:00 -4°C° 0 mm 2 mps 755 mmHg 52%
    13:00 -4°C° 0 mm 2 mps 755 mmHg 51%
    14:00 -3°C° 0 mm 2 mps 754 mmHg 49%
    15:00 -3°C° 0 mm 2 mps 754 mmHg 55%
    16:00 -5°C° 0 mm 3 mps 753 mmHg 61%
    17:00 -5°C° 0 mm 3 mps 753 mmHg 67%
    18:00 -5°C° 0.1 mm 3 mps 752 mmHg 73%
    19:00 -5°C° 0.1 mm 3 mps 752 mmHg 78%
    20:00 -6°C° 0.1 mm 3 mps 752 mmHg 84%
    21:00 -5°C° 0.1 mm 3 mps 751 mmHg 85%
    22:00 -5°C° 0.1 mm 3 mps 751 mmHg 86%
    23:00 -5°C° 0.1 mm 3 mps 751 mmHg 86%

    24 February, Sunday

    Time Temperature Precipitation Wind Pressure Humidity
    00:00 -4°C° 0.1 mm 3 mps 751 mmHg 89%
    01:00 -4°C° 0.1 mm 3 mps 750 mmHg 91%
    02:00 -4°C° 0.1 mm 3 mps 750 mmHg 93%
    03:00 -2°C° 0 mm 3 mps 750 mmHg 95%
    04:00 -2°C° 0 mm 3 mps 750 mmHg 96%
    05:00 -2°C° 0 mm 3 mps 751 mmHg 97%
    06:00 -2°C° 0 mm 3 mps 751 mmHg 97%
    07:00 -2°C° 0 mm 3 mps 751 mmHg 97%
    08:00 -2°C° 0 mm 3 mps 752 mmHg 97%
    09:00 -1°C° 0 mm 3 mps 752 mmHg 94%
    10:00 -1°C° 0 mm 3 mps 753 mmHg 91%
    11:00 -1°C° 0 mm 3 mps 753 mmHg 88%
    12:00 -1°C° 0 mm 2 mps 753 mmHg 86%
    13:00 -1°C° 0 mm 2 mps 753 mmHg 85%
    14:00 +1°C° 0 mm 2 mps 754 mmHg 83%
    15:00 +1°C° 0 mm 2 mps 754 mmHg 84%
    16:00 -1°C° 0 mm 2 mps 754 mmHg 84%
    17:00 -1°C° 0 mm 2 mps 754 mmHg 85%
    18:00 -1°C° 0 mm 2 mps 754 mmHg 87%
    19:00 +1°C° 0 mm 1 mps 754 mmHg 89%
    20:00 0°C° 0 mm 1 mps 754 mmHg 91%
    21:00 0°C° 0 mm 1 mps 754 mmHg 92%
    22:00 0°C° 0 mm 1 mps 754 mmHg 93%
    23:00 -1°C° 0 mm 1 mps 754 mmHg 94%
    Show more